Presure
187 194 180 197 190 151 172 157 185 173 136 178 179 172 175 165 161 168 124 131 135 143 135 129 124 134 128 128 134 137 115 125 121 123 124 137 123 106 132 158 120 114 147 163 157
168 189 140 150 187 197 187 192 182 183 181 158 179 150 168 143 169 168 170 158 154 96 159 136 124 118 130 162 155 126 158 127 129 117 122 128 123 154 161 117 128 158 159 154 157
145 203 171 171 126 173 195 175 194 170 165 189 179 173 173 156 156 164 165 170 157 169 154 147 147 143 148 124 125 163 119 112 107 132 98 115 153 125 119 127 147 133 141 150 149
208 194 203 200 200 130 191 180 160 193 165 154 169 158 186 119 146 169 170 170 146 148 162 141 168 132 133 125 138 110 159 157 154 107 150 176 140 140 159 133 139 160 161 165 160
178 197 187 198 192 194 180 195 180 187 176 169 187 174 170 166 189 163 163 169 143 164 175 169 162 111 142 147 148 160 152 147 150 112 163 139 157 148 146 154 155 168 150 161 171
196 199 197 196 184 178 192 175 191 186 156 183 177 173 183 152 170 180 140 179 164 180 144 176 170 163 152 161 160 164 170 147 150 162 154 161 143 136 149 135 138 147 157 175 164
196 214 188 206 186 189 174 193 179 176 180 170 168 174 169 181 176 161 172 169 167 122 147 179 168 181 182 162 159 155 159 159 150 152 148 143 168 165 147 155 154 153 161 181 151
196 191 196 192 211 169 187 175 179 176 182 191 179 157 168 173 179 174 143 163 169 169 165 130 167 169 162 163 159 159 155 157 159 159 153 151 166 170 162 162 156 173 150 158 162
203 191 191 190 201 207 194 196 185 175 181 177 182 185 174 147 177 156 171 174 173 180 170 156 161 159 177 153 159 154 157 153 146 147 165 161 169 167 167 170 150 176 174 166 173
193 206 191 194 186 192 196 204 199 193 180 184 179 181 166 182 182 174 182 174 187 173 159 190 169 174 159 153 151 166 167 165 164 167 171 160 160 164 174 136 165 160 158 171 162
201 201 204 202 194 193 182 194 197 202 204 180 169 186 181 173 170 181 174 176 161 178 171 151 140 155 162 161 170 168 163 165 163 151 162 170 163 156 165 170 158 175 183 171 156
214 206 202 207 208 190 193 191 190 189 191 207 187 173 177 132 179 178 180 183 171 161 174 186 177 176 185 168 176 167 170 126 161 172 169 179 153 177 148 173 160 179 165 181 171
216 224 215 210 205 206 203 194 200 193 190 187 188 204 193 179 178 174 178 178 175 178 171 167 165 168 168 160 176 183 178 170 171 137 149 179 149 176 175 141 141 148 177 174 179
214 217 224 236 220 211 204 206 206 194 197 186 189 186 196 208 202 190 180 178 170 179 176 174 174 169 166 162 183 166 167 181 167 165 178 170 175 167 165 170 173 164 185 177 181
223 224 206 209 211 232 221 215 207 206 200 198 192 191 182 190 193 189 203 201 184 178 173 170 181 185 181 178 175 176 176 176 166 165 178 177 180 175 165 168 177 176 172 180 177
192 217 220 196 199 243 249 233 219 210 214 206 193 197 196 186 186 187 192 196 202 209 185 181 164 188 177 174 177 179 177 180 179 175 156 172 172 176 169 177 172 168 174 174 174
239 245 253 258 252 233 239 262 249 246 219 207 205 195 221 204 184 187 190 187 188 199 202 190 186 172 169 177 184 177 170 183 182 187 182 175 185 175 165 164 183 184 177 178 174
250 256 204 206 266 222 271 269 272 278 240 221 213 206 196 215 201 191 186 187 187 183 186 195 195 188 186 188 183 183 180 178 188 184 185 182 178 175 180 179 177 178 178 177 175
298 306 328 271 258 244 309 299 293 290 277 203 255 220 209 207 203 216 201 193 186 185 187 188 185 191 183 185 189 187 190 186 184 190 182 175 173 169 175 170 178 178 174 174 173
235 318 326 319 309 318 319 334 303 291 275 294 262 245 227 212 209 206 208 213 191 189 180 182 181 184 180 187 192 195 185 190 188 183 182 179 178 175 178 180 181 175 175 178 179
309 325 280 314 311 331 322 345 323 331 305 309 292 267 233 231 219 208 206 200 209 205 188 185 177 179 184 194 177 176 177 179 186 178 179 172 177 185 186 191 185 185 190 175 191
314 331 297 309 302 314 316 321 335 369 367 330 294 302 267 227 240 219 210 210 198 192 206 197 186 181 177 178 180 186 189 183 184 175 171 171 176 169 172 178 186 189 191 187 172
295 312 290 292 324 311 316 336 331 281 370 374 352 369 317 260 245 241 217 209 199 208 197 189 212 200 185 185 175 188 172 173 171 173 173 174 164 168 176 183 188 177 175 170 170
306 316 318 318 317 326 332 338 355 371 430 464 379 380 365 313 265 248 246 212 209 206 200 201 197 202 219 194 154 179 166 181 181 181 173 170 170 175 176 180 182 175 168 169 171
298 327 325 330 318 318 323 339 459 510 486 480 524 429 360 374 303 277 240 213 220 203 206 203 203 209 200 194 199 196 188 185 184 184 185 173 172 169 173 177 178 172 171 170 177
320 308 315 320 330 369 453 430 433 478 460 433 448 415 377 377 361 289 267 248 231 225 208 206 211 203 202 205 200 194 190 194 179 189 182 178 178 172 177 179 183 174 171 172 171
307 322 358 418 503 434 396 391 419 419 450 434 427 437 393 364 360 314 274 258 247 216 225 213 208 205 203 198 202 205 175 182 193 178 188 183 179 180 187 190 187 178 175 174 178
Wind_Speed
58 57 61 61 62 55 61 59 66 64 52 65 62 65 62 70 63 67 46 54 54 58 53 52 49 53 50 43 47 51 32 43 35 36 39 46 40 29 44 43 38 36 46 45 46
52 61 53 54 64 71 69 69 69 67 71 62 67 56 70 56 68 67 64 68 63 30 60 58 49 39 50 52 55 43 53 44 44 28 36 45 41 46 43 35 46 45 44 45 47
57 68 61 62 53 66 71 65 73 68 61 73 71 68 74 63 62 68 66 67 63 63 61 60 61 58 56 49 47 55 36 29 29 47 27 34 48 37 37 42 48 46 49 48 48
64 64 67 72 72 55 71 71 66 75 67 65 68 63 75 47 60 69 71 65 60 61 67 58 63 53 57 45 51 32 57 57 55 31 54 46 50 51 50 46 49 49 49 50 50
63 66 67 76 71 75 70 70 74 75 76 72 74 75 72 69 75 68 66 65 62 66 64 67 64 44 62 65 65 62 60 54 54 37 54 51 52 53 50 45 50 48 50 51 51
64 67 69 75 75 71 74 76 78 78 69 78 78 74 78 65 68 73 60 66 67 66 66 68 65 62 65 64 66 64 58 60 60 55 57 57 52 51 53 48 47 53 52 50 52
70 73 73 71 75 82 75 81 79 79 78 79 79 78 78 80 78 73 74 74 70 49 67 66 61 57 54 64 69 69 67 64 62 58 58 60 57 58 54 54 54 55 54 47 55
72 73 72 74 80 75 83 80 81 82 83 86 84 76 80 81 82 82 65 74 75 73 72 55 67 62 65 64 68 70 71 66 62 60 59 60 58 56 56 56 56 50 52 54 55
76 77 79 76 78 80 86 89 92 84 86 83 85 88 88 72 86 75 84 84 81 78 76 70 71 68 65 64 70 73 73 66 59 58 58 60 59 59 57 56 60 51 51 51 51
76 81 82 85 81 83 84 84 89 99 90 92 89 89 86 90 89 87 87 82 83 77 69 70 73 71 70 67 64 74 70 66 68 62 60 62 61 58 56 43 56 60 57 50 55
78 82 85 91 89 90 86 88 87 90 99 97 90 93 95 92 88 91 91 88 76 84 79 74 65 71 74 76 75 71 71 69 69 63 65 61 63 63 61 58 60 58 49 52 58
78 83 88 91 94 91 95 95 93 92 93 92 102 95 97 66 96 95 95 93 88 82 86 83 78 80 80 73 76 71 69 58 70 65 64 60 58 59 58 61 60 54 58 51 53
77 79 88 93 95 97 101 100 102 100 97 98 97 94 106 99 101 96 95 96 93 91 87 85 82 79 78 72 76 74 69 71 70 58 59 59 55 60 60 53 49 47 55 54 52
77 79 80 87 97 99 102 104 107 103 103 100 100 97 97 94 103 113 102 100 93 96 95 89 90 84 81 77 81 74 74 71 69 63 63 61 64 63 61 60 59 58 54 53 53
76 82 89 92 96 98 105 107 109 110 103 105 108 103 101 102 97 104 106 113 105 102 93 90 96 96 91 88 83 81 74 69 66 65 63 60 65 64 61 62 59 59 56 52 53
83 83 90 98 100 95 100 108 112 115 110 106 104 113 109 108 104 104 106 103 100 102 104 100 86 95 92 90 87 86 79 77 73 68 63 71 58 62 60 60 61 60 56 53 52
74 80 88 87 90 97 105 105 112 116 108 107 109 112 114 116 109 105 111 104 100 99 95 103 100 93 89 94 91 85 81 82 76 71 70 68 59 64 63 61 59 56 56 54 54
84 83 96 96 91 90 98 103 108 100 109 112 115 114 114 118 118 115 111 108 103 99 99 95 90 91 91 91 95 93 89 79 73 70 70 63 60 65 62 59 60 59 58 55 55
80 81 74 80 90 89 94 100 102 99 99 104 113 119 117 118 117 124 120 115 106 102 104 102 91 94 94 94 93 89 82 85 76 68 66 64 67 67 66 60 61 60 58 58 58
78 73 70 76 82 87 91 94 99 100 103 103 114 120 121 120 124 124 123 118 114 108 106 103 101 94 94 95 90 83 83 78 72 66 68 69 70 70 69 64 63 60 62 62 62
77 70 70 73 79 83 88 87 95 97 106 109 109 121 121 125 128 126 120 112 116 116 113 111 99 102 100 94 90 84 82 77 74 70 71 70 70 71 73 66 65 66 64 60 55
76 70 74 75 80 81 83 88 86 82 92 110 113 114 122 118 129 128 126 118 114 112 117 115 113 108 100 105 95 90 85 77 67 66 71 70 68 71 70 64 64 59 56 52 56
82 76 78 83 79 84 85 87 92 65 89 92 104 105 111 121 128 130 123 118 120 121 110 111 115 112 109 104 77 90 78 70 68 75 68 71 73 73 68 66 60 57 54 58 59
88 82 77 79 79 82 84 83 85 80 71 65 89 93 103 118 125 124 121 120 123 120 114 122 111 113 110 103 91 104 84 99 96 89 78 70 78 71 69 64 59 57 62 63 59
93 87 84 83 77 83 86 82 58 46 48 38 41 76 94 99 119 118 117 114 124 122 123 122 115 113 103 105 109 105 104 96 89 85 84 80 73 70 74 69 65 63 63 63 62
93 89 89 85 88 87 48 47 43 23 35 42 40 65 81 92 104 116 121 126 125 130 128 122 120 112 107 108 106 101 98 98 80 93 81 87 81 80 81 76 69 64 63 65 63
94 97 96 75 39 43 43 41 32 25 34 41 42 51 77 87 90 109 119 121 123 116 127 127 116 114 106 104 105 110 77 80 90 80 88 86 91 90 87 83 78 71 69 69 72
Wind_Direction
222 215 224 221 219 240 227 236 219 231 242 224 224 228 227 236 239 240 251 249 250 249 252 256 261 259 262 267 268 270 275 278 283 286 287 282 295 294 299 293 305 299 307 306 313
226 220 236 234 223 219 225 223 229 226 224 239 224 245 234 238 235 241 239 245 248 245 255 255 258 263 262 263 267 272 269 278 280 283 287 288 291 287 291 299 303 300 303 308 309
236 216 229 231 247 229 222 233 223 238 240 220 232 236 233 243 246 242 242 242 248 246 254 255 257 259 262 265 269 266 268 267 268 280 268 283 285 288 291 298 299 306 307 308 311
223 224 224 222 225 244 223 229 238 225 239 240 242 244 226 244 240 237 242 240 248 250 251 253 254 260 261 262 265 262 268 270 274 268 277 283 283 287 288 297 299 299 300 302 307
236 227 227 224 226 223 230 230 231 228 232 238 232 240 244 243 228 244 243 244 251 245 247 253 255 256 260 262 262 266 268 268 270 273 279 281 283 286 290 294 297 299 304 304 306
232 231 229 230 230 231 225 233 228 229 242 232 235 237 236 244 239 242 245 243 246 245 249 247 254 256 256 261 264 267 270 270 271 274 280 282 284 284 289 293 296 299 302 304 308
237 239 232 231 229 229 234 227 232 233 234 235 239 238 239 238 240 244 245 245 245 254 251 249 252 253 255 256 262 266 268 268 272 276 280 283 285 288 292 294 294 297 301 304 306
236 239 238 233 233 236 231 237 235 235 233 233 235 243 242 242 240 241 246 245 245 246 248 254 251 251 253 254 258 261 265 269 273 276 279 282 283 285 289 289 293 293 299 302 303
237 239 239 238 239 238 232 233 234 237 236 239 234 233 240 247 241 245 245 246 247 246 246 250 250 252 247 253 256 261 263 271 273 274 276 279 280 284 286 289 292 293 294 300 298
240 238 240 238 240 241 239 239 235 233 237 236 238 237 243 240 239 243 244 246 247 247 248 243 249 250 251 255 256 257 262 265 269 271 272 276 279 282 285 289 288 291 295 296 296
242 241 240 237 240 237 242 241 238 237 237 237 240 236 240 241 243 242 245 245 249 249 248 247 250 249 249 253 253 255 259 263 268 271 272 275 277 279 281 283 285 289 294 293 293
246 243 243 240 238 241 240 239 240 238 237 240 236 240 240 246 242 242 244 245 246 248 250 249 247 250 252 252 252 254 257 264 264 265 268 271 274 276 280 281 283 288 289 294 293
249 247 246 244 242 239 239 241 238 238 240 240 237 238 241 242 243 245 244 246 247 248 249 250 251 250 251 255 256 255 254 256 260 267 267 269 273 272 275 280 284 287 288 292 293
249 249 249 250 245 242 241 240 240 239 237 239 241 239 241 241 241 243 244 244 247 247 248 249 252 253 254 255 259 253 254 255 259 265 265 266 266 269 274 277 282 283 288 291 291
256 250 247 248 250 248 244 241 240 239 238 236 240 239 243 243 238 245 243 243 244 247 249 250 251 252 254 256 258 262 261 261 259 261 265 265 264 270 274 276 281 282 286 287 290
255 254 251 248 249 249 247 242 241 240 238 236 239 241 238 242 242 242 245 244 244 245 245 248 253 253 254 257 258 259 263 265 266 262 261 263 267 273 273 275 276 280 281 284 291
269 267 265 263 255 253 251 248 243 240 239 238 236 238 240 239 242 243 246 245 246 247 244 244 246 251 254 255 256 258 259 261 262 263 261 269 274 271 270 272 276 280 282 289 291
272 271 254 256 258 256 256 253 247 242 238 237 237 236 238 239 239 239 243 245 245 249 249 249 249 250 253 253 253 255 257 260 264 262 263 268 269 268 271 274 278 282 285 288 290
284 280 271 266 256 255 253 251 249 245 239 239 234 237 236 238 240 241 239 241 243 246 249 250 246 248 247 249 252 254 257 258 260 265 265 264 267 268 271 272 278 282 285 287 289
279 282 269 265 260 257 255 255 250 246 241 238 233 236 235 235 238 240 241 240 241 242 245 248 250 250 248 250 252 255 255 261 264 266 267 267 270 272 274 276 280 281 283 286 289
287 286 272 269 266 262 259 258 252 248 243 240 233 232 234 232 235 238 239 240 239 240 242 242 246 249 252 254 252 250 251 253 254 257 259 264 267 269 272 276 277 279 282 282 286
293 290 279 277 273 269 266 260 256 254 247 243 235 233 231 233 232 234 237 238 241 239 241 243 241 244 249 250 251 255 257 257 259 261 260 264 268 268 270 272 275 278 280 281 278
289 288 279 276 278 270 268 265 262 256 255 249 243 241 232 230 232 231 234 235 240 240 240 243 244 244 245 249 257 261 259 255 253 255 260 261 260 262 268 271 274 276 276 272 275
291 290 284 280 278 277 275 269 268 265 259 252 244 238 235 229 230 231 229 234 236 240 240 241 242 242 241 243 242 247 245 254 256 258 257 256 259 264 270 273 274 273 270 273 278
290 292 290 286 280 275 273 273 271 258 254 254 240 231 229 228 227 227 230 232 233 237 240 242 243 243 243 243 245 247 250 254 258 261 262 261 263 267 269 269 268 267 271 274 278
293 290 288 285 285 284 269 270 265 246 230 231 228 225 222 223 225 223 223 227 228 230 235 239 240 242 242 243 245 245 245 247 251 256 262 265 268 267 267 267 271 268 270 273 275
293 292 291 286 271 263 265 262 245 243 225 225 221 218 217 217 218 224 222 224 227 230 233 237 239 240 242 244 245 244 241 249 249 253 254 260 262 265 270 273 272 271 271 273 277